CAPE
0 0 0 0 0 0 0 0 0 0 0 0 0 0 0 0 0 0 0 0 0 0 0 0 0 0 0 0 0 0 0 0 0 0 0 0 0 0 0 0 0 0 0 0 0 0 0
0 0 0 0 0 0 0 0 0 0 0 0 0 0 0 0 0 0 0 0 0 0 0 0 0 0 0 0 0 0 0 0 0 0 0 0 0 0 0 0 0 0 0 0 0 0 0
0 0 0 0 0 0 0 0 0 0 0 0 0 0 0 0 0 0 0 0 0 0 0 0 0 0 0 0 0 0 0 0 0 0 0 0 0 0 0 0 0 0 0 0 0 0 0
0 0 0 0 0 0 0 0 0 0 0 0 0 0 0 0 0 0 0 0 0 0 0 0 0 0 0 0 0 0 0 0 0 0 0 0 0 0 0 0 0 0 0 0 0 0 0
0 0 0 0 0 0 0 0 0 0 0 0 0 0 0 0 0 0 0 0 0 0 0 0 0 0 0 0 0 0 0 0 0 0 0 0 0 0 0 0 0 0 0 0 0 0 0
0 0 0 0 0 0 0 0 0 0 0 0 0 0 0 0 0 0 0 0 0 0 0 0 0 0 0 0 0 0 0 0 0 0 0 0 0 0 0 0 0 0 0 0 0 0 0
0 0 0 0 0 0 0 0 0 0 0 0 0 0 0 0 0 0 0 0 0 0 0 0 0 0 0 0 0 0 0 0 0 0 0 0 0 0 0 0 0 0 0 0 0 0 0
0 0 0 0 0 0 0 0 0 0 0 0 0 0 0 0 0 0 0 0 0 0 0 0 0 0 0 0 0 0 0 0 0 0 0 0 0 0 0 0 0 0 0 0 0 0 0
0 0 0 0 0 0 0 0 0 0 0 0 0 0 0 0 0 0 0 0 0 0 0 0 0 0 0 0 0 0 0 0 0 0 0 0 0 0 0 0 0 0 0 0 0 0 0
0 0 0 0 0 0 0 0 0 0 0 0 0 0 0 0 0 0 0 0 0 0 0 0 0 0 0 0 0 0 0 0 0 0 0 0 0 0 0 0 0 0 0 0 0 0 0
0 0 0 0 0 0 0 0 0 0 0 0 0 0 0 0 0 0 0 0 0 0 0 0 0 0 0 0 0 0 0 0 0 0 0 0 0 0 0 0 0 0 0 0 0 0 0
0 0 0 0 0 0 0 0 0 0 0 0 0 0 0 0 0 0 0 0 0 0 0 0 0 0 0 0 0 0 0 0 0 0 0 0 0 0 0 0 0 0 0 0 0 0 0
0 0 0 0 0 0 0 0 0 0 0 0 0 0 0 0 0 0 0 0 0 0 0 0 0 0 0 0 0 0 0 0 0 0 0 0 0 0 0 0 0 0 0 0 0 0 0
0 0 0 0 0 0 0 0 0 0 0 0 0 0 0 0 0 0 0 0 0 0 0 0 0 0 0 0 0 0 0 0 0 0 0 0 0 0 0 0 0 0 0 0 0 0 0
0 0 0 0 0 0 0 0 0 0 0 0 0 0 0 0 0 0 0 0 0 0 0 0 0 0 0 0 0 0 0 0 0 0 0 0 0 0 0 0 0 0 0 0 0 0 0
0 0 0 0 0 0 0 0 0 0 0 0 0 0 0 0 0 0 0 0 0 0 0 0 0 0 0 0 0 0 0 0 0 0 0 0 0 0 0 0 0 0 0 0 0 0 0
0 0 0 0 0 0 0 0 0 0 0 0 0 0 0 0 0 0 0 0 0 0 0 0 0 0 0 0 0 0 0 0 0 0 0 0 0 0 0 0 0 0 0 0 0 0 0
0 0 0 0 0 0 0 0 0 0 0 0 0 0 0 0 0 0 0 0 0 0 0 0 0 0 0 0 0 0 0 0 0 0 0 0 0 0 0 0 0 0 0 0 0 0 0
0 0 0 0 0 0 0 0 0 0 0 0 0 0 0 0 0 0 0 0 0 0 0 0 0 0 0 0 0 0 0 0 0 0 0 0 0 0 0 0 0 0 0 0 0 0 0
0 0 0 0 0 0 0 0 0 0 0 0 0 0 0 0 0 0 0 0 0 0 0 0 0 0 0 0 0 0 0 0 0 0 0 0 0 0 0 0 0 0 0 0 0 0 0
0 0 0 0 0 0 0 0 0 0 0 0 0 0 0 0 0 0 0 0 0 0 0 0 0 0 0 0 0 0 0 0 0 0 0 0 0 0 0 0 0 0 0 0 0 0 0
0 0 0 0 0 0 0 0 0 0 0 0 0 0 0 0 0 0 0 0 0 0 0 0 0 0 0 0 0 0 0 0 0 0 0 0 0 0 0 0 0 0 0 0 0 0 0
0 0 0 0 0 0 0 0 0 0 0 0 0 0 0 0 0 0 0 0 0 0 0 0 0 0 0 0 0 0 0 0 0 0 0 0 0 0 0 0 0 0 0 0 0 10 6
0 0 0 0 0 0 0 0 0 0 0 0 0 0 0 0 0 0 0 0 0 0 0 0 0 0 0 0 0 0 0 0 0 0 0 0 0 0 0 0 0 0 0 0 0 26 2
0 0 0 0 0 0 0 0 0 0 0 0 0 0 0 0 0 0 0 0 0 0 0 0 0 0 0 0 0 0 0 0 0 3 0 0 0 0 0 0 0 0 0 1 14 0 0
0 0 0 0 0 0 0 0 0 0 0 0 0 0 0 0 0 0 0 0 0 0 0 0 0 0 0 0 0 0 0 0 0 0 0 0 0 2 0 0 0 5 1 3 5 0 2
0 0 0 0 0 0 0 0 0 0 0 0 0 0 0 0 0 0 0 0 0 0 0 0 0 0 0 0 0 0 0 0 0 0 0 0 0 0 0 0 0 0 2 1 0 0 0
0 0 0 0 0 0 0 0 0 0 0 0 0 0 0 0 0 0 0 0 0 0 0 0 0 0 0 0 0 0 0 0 0 0 0 0 0 0 0 0 0 0 1 0 6 2 0
0 0 0 0 0 0 0 0 0 0 0 0 0 0 0 0 0 0 0 0 0 0 0 0 1 0 0 0 0 0 0 0 0 0 0 0 0 2 3 0 0 1 8 1 1 2 1
CIN
-0 -0 -0 -0 -0 -0 -0 -0 -0 -0 -0 -0 -0 -0 -0 -0 -0 -0 -0 -0 -0 -0 -0 -0 -0 -0 -0 -0 -0 -0 -0 -0 -0 -0 -0 -0 -0 -0 -0 -0 -0 -0 -0 -0 -0 -0 -0
-0 -0 -0 -0 -0 -0 -0 -0 -0 -0 -0 -0 -0 -0 -0 -0 -0 -0 -0 -0 -0 -0 -0 -0 -0 -0 -0 -0 -0 -0 -0 -0 -0 -0 -0 -0 -0 -0 -0 -0 -0 -0 -0 -0 -0 -0 -0
-0 -0 -0 -0 -0 -0 -0 -0 -0 -0 -0 -0 -0 -0 -0 -0 -0 -0 -0 -0 -0 -0 -0 -0 -0 -0 -0 -0 -0 -0 -0 -0 -0 -0 -0 -0 -0 -0 -0 -0 -0 -0 -0 -0 -0 -0 -0
-0 -0 -0 -0 -0 -0 -0 -0 -0 -0 -0 -0 -0 -0 -0 -0 -0 -0 -0 -0 -0 -0 -0 -0 -0 -0 -0 -0 -0 -0 -0 -0 -0 -0 -0 -0 -0 -0 -0 -0 -0 -0 -0 -0 -0 -0 -0
-0 -0 -0 -0 -0 -0 -0 -0 -0 -0 -0 -0 -0 -0 -0 -0 -0 -0 -0 -0 -0 -0 -0 -0 -0 -0 -0 -0 -0 -0 -0 -0 -0 -0 -0 -0 -0 -0 -0 -0 -0 -0 -0 -0 -0 -0 -0
-0 -0 -0 -0 -0 -0 -0 -0 -0 -0 -0 -0 -0 -0 -0 -0 -0 -0 -0 -0 -0 -0 -0 -0 -0 -0 -0 -0 -0 -0 -0 -0 -0 -0 -0 -0 -0 -0 -0 -0 -0 -0 -0 -0 -0 -0 -0
-0 -0 -0 -0 -0 -0 -0 -0 -0 -0 -0 -0 -0 -0 -0 -0 -0 -0 -0 -0 -0 -0 -0 -0 -0 -0 -0 -0 -0 -0 -0 -0 -0 -0 -0 -0 -0 -0 -0 -0 -0 -0 -0 -0 -0 -0 -0
-0 -0 -0 -0 -0 -0 -0 -0 -0 -0 -0 -0 -0 -0 -0 -0 -0 -0 -0 -0 -0 -0 -0 -0 -0 -0 -0 -0 -0 -0 -0 -0 -0 -0 -0 -0 -0 -0 -0 -0 -0 -0 -0 -0 -0 -0 -0
-0 -0 -0 -0 -0 -0 -0 -0 -0 -0 -0 -0 -0 -0 -0 -0 -0 -0 -0 -0 -0 -0 -0 -0 -0 -0 -0 -0 -0 -0 -0 -0 -0 -0 -0 -0 -0 -0 -0 -0 -0 -0 -0 -0 -0 -0 -0
-0 -0 -0 -0 -0 -0 -0 -0 -0 -0 -0 -0 -0 -0 -0 -0 -0 -0 -0 -0 -0 -0 -0 -0 -0 -0 -0 -0 -0 -0 -0 -0 -0 -0 -0 -0 -0 -0 -0 -0 -0 -0 -0 -0 -0 -0 -0
-0 -0 -0 -0 -0 -0 -0 -0 -0 -0 -0 -0 -0 -0 -0 -0 -0 -0 -0 -0 -0 -0 -0 -0 -0 -0 -0 -0 -0 -0 -0 -0 -0 -0 -0 -0 -0 -0 -0 -0 -0 -0 -0 -0 -0 -0 -0
-0 -0 -0 -0 -0 -0 -0 -0 -0 -0 -0 -0 -0 -0 -0 -0 -0 -0 -0 -0 -0 -0 -0 -0 -0 -0 -0 -0 -0 -0 -0 -0 -0 -0 -0 -0 -0 -0 -0 -0 -0 -0 -0 -0 -0 -0 -0
-0 -0 -0 -0 -0 -0 -0 -0 -0 -0 -0 -0 -0 -0 -0 -0 -0 -0 -0 -0 -0 -0 -0 -0 -0 -0 -0 -0 -0 -0 -0 -0 -0 -0 -0 -0 -0 -0 -0 -0 -0 -0 -0 -0 -0 -0 -0
-0 -0 -0 -0 -0 -0 -0 -0 -0 -0 -0 -0 -0 -0 -0 -0 -0 -0 -0 -0 -0 -0 -0 -0 -0 -0 -0 -0 -0 -0 -0 -0 -0 -0 -0 -0 -0 -0 -0 -0 -0 -0 -0 -0 -0 -0 -0
-0 -0 -0 -0 -0 -0 -0 -0 -0 -0 -0 -0 -0 -0 -0 -0 -0 -0 -0 -0 -0 -0 -0 -0 -0 -0 -0 -0 -0 -0 -0 -0 -0 -0 -0 -0 -0 -0 -0 -0 -0 -0 -0 -0 -0 -0 -0
-0 -0 -0 -0 -0 -0 -0 -0 -0 -0 -0 -0 -0 -0 -0 -0 -0 -0 -0 -0 -0 -0 -0 -0 -0 -0 -0 -0 -0 -0 -0 -0 -0 -0 -0 -0 -0 -0 -0 -0 -0 -0 -0 -0 -0 -0 -0
-0 -0 -0 -0 -0 -0 -0 -0 -0 -0 -0 -0 -0 -0 -0 -0 -0 -0 -0 -0 -0 -0 -0 -0 -0 -0 -0 -0 -0 -0 -0 -0 -0 -0 -0 -0 -0 -0 -0 -0 -0 -0 -0 -0 -0 -0 -0
-0 -0 -0 -0 -0 -0 -0 -0 -0 -0 -0 -0 -0 -0 -0 -0 -0 -0 -0 -0 -0 -0 -0 -0 -0 -0 -0 -0 -0 -0 -0 -0 -0 -0 -0 -0 -0 -0 -0 -0 -0 -0 -0 -0 -0 -0 -0
-0 -0 -0 -0 -0 -0 -0 -0 -0 -0 -0 -0 -0 -0 -0 -0 -0 -0 -0 -0 -0 -0 -0 -0 -0 -0 -0 -0 -0 -0 -0 -0 -0 -0 -0 -0 -0 -0 -0 -0 -0 -0 -0 -0 -0 -0 -0
-0 -0 -0 -0 -0 -0 -0 -0 -0 -0 -0 -0 -0 -0 -0 -0 -0 -0 -0 -0 -0 -0 -0 -0 -0 -0 -0 -0 -0 -0 -0 -0 -0 -0 -0 -0 -0 -0 -0 -0 -0 -0 -0 -0 -0 -0 -0
-0 -0 -0 -0 -0 -0 -0 -0 -0 -0 -0 -0 -0 -0 -0 -0 -0 -0 -0 -0 -0 -0 -0 -0 -0 -0 -0 -0 -0 -0 -0 -0 -0 -0 -0 -0 -0 -0 -0 -0 -0 -0 -0 -0 -0 -0 -0
-0 -0 -0 -0 -0 -0 -0 -0 -0 -0 -0 -0 -0 -0 -0 -0 -0 -0 -0 -0 -0 -0 -0 -0 -0 -0 -0 -0 -0 -0 -0 -0 -0 -0 -0 -0 -0 -0 -0 -0 -0 -0 -0 -0 -0 -0 -0
-0 -0 -0 -0 -0 -0 -0 -0 -0 -0 -0 -0 -0 -0 -0 -0 -0 -0 -0 -0 -0 -0 -0 -0 -0 -0 -0 -0 -0 -0 -0 -0 -0 -0 -0 -0 -0 -0 -0 -0 -0 -0 -0 -0 -0 -1 -3
-0 -0 -0 -0 -0 -0 -0 -0 -0 -0 -0 -0 -0 -0 -0 -0 -0 -0 -0 -0 -0 -0 -0 -0 -0 -0 -0 -0 -0 -0 -0 -0 -0 -0 -0 -0 -0 -0 -0 -0 -0 -0 -0 -0 -0 -4 -24
-0 -0 -0 -0 -0 -0 -0 -0 -0 -0 -0 -0 -0 -0 -0 -0 -0 -0 -0 -0 -0 -0 -0 -0 -0 -0 -0 -0 -0 -0 -0 -0 -0 -22 -0 -0 -0 -0 -0 -0 -0 -0 -0 -2 -15 -0 -0
-0 -0 -0 -0 -0 -0 -0 -0 -0 -0 -0 -0 -0 -0 -0 -0 -0 -0 -0 -0 -0 -0 -0 -0 -0 -0 -0 -0 -0 -0 -0 -0 -0 -0 -0 -0 -0 -0 -0 -0 -0 -0 -0 -0 -25 -0 -33
-0 -0 -0 -0 -0 -0 -0 -0 -0 -0 -0 -0 -0 -0 -0 -0 -0 -0 -0 -0 -0 -0 -0 -0 -0 -0 -0 -0 -0 -0 -0 -0 -0 -0 -0 -0 -0 -0 -0 -0 -0 -0 -0 -0 -0 -0 -0
-0 -0 -0 -0 -0 -0 -0 -0 -0 -0 -0 -0 -0 -0 -0 -0 -0 -0 -0 -0 -0 -0 -0 -0 -0 -0 -0 -0 -0 -0 -0 -0 -0 -0 -0 -0 -0 -0 -0 -0 -0 -0 -0 -0 -0 -0 -0
-0 -0 -0 -0 -0 -0 -0 -0 -0 -0 -0 -0 -0 -0 -0 -0 -0 -0 -0 -0 -0 -0 -0 -0 -1 -0 -0 -0 -0 -0 -0 -0 -0 -0 -0 -0 -0 -1 -4 -0 -1 -1 -0 -0 -0 -0 -0
Wind_Speed
22 22 22 22 23 23 23 23 23 24 24 24 23 23 23 23 23 23 22 22 21 20 19 18 18 18 17 19 22 20 18 9 6 4 5 9 9 11 16 17 22 20 28 26 24 26 20
23 23 23 23 23 24 24 24 24 24 24 24 24 23 23 22 23 22 22 21 20 19 18 17 16 15 17 23 18 18 12 8 7 5 7 8 10 12 18 17 16 17 25 32 25 31 23
24 24 25 24 24 25 25 25 25 24 25 25 24 23 23 23 22 21 20 18 18 17 16 15 14 16 19 27 16 14 10 11 10 5 8 6 6 15 16 23 20 17 29 31 26 24 16
25 25 25 25 25 26 26 26 25 25 25 25 24 24 23 22 21 19 16 15 16 16 14 13 13 17 21 19 20 16 13 15 12 9 8 11 12 19 18 20 22 23 21 28 24 21 19
25 26 26 26 26 26 27 26 25 25 25 25 24 23 23 22 20 17 14 14 15 14 13 12 16 18 23 20 19 17 13 15 10 10 13 16 17 16 17 19 23 19 22 25 30 23 25
25 26 26 26 26 26 26 25 25 25 25 25 24 22 22 20 18 13 13 14 13 13 14 16 19 20 21 15 17 14 8 13 13 12 15 13 14 15 15 17 20 21 23 24 24 24 26
26 26 27 26 26 26 26 25 25 24 24 24 23 21 20 18 16 12 13 14 18 17 16 14 16 17 26 22 17 13 9 10 15 15 16 17 19 17 21 20 20 24 29 31 33 25 27
27 27 27 27 27 26 26 26 25 25 25 24 23 21 19 17 15 13 14 17 20 20 26 15 14 15 25 20 20 17 9 10 13 18 18 21 26 24 23 23 24 25 29 35 33 26 21
27 27 28 28 28 27 27 27 26 25 25 25 23 21 19 17 16 14 15 20 21 22 22 21 15 15 16 7 12 21 5 10 14 13 17 20 19 17 19 23 25 24 23 31 30 36 30
28 28 29 29 30 29 29 29 28 27 26 26 23 22 20 18 14 17 18 23 24 15 18 18 17 17 10 9 16 7 3 6 15 18 19 24 25 26 24 25 21 28 25 31 36 34 36
29 30 30 31 31 31 31 31 31 30 29 28 26 23 20 13 16 18 22 26 21 16 15 19 17 14 13 7 15 16 9 11 11 14 14 18 20 20 21 22 20 29 28 28 34 34 32
30 31 32 32 32 32 33 33 33 33 32 29 26 22 16 14 16 21 27 24 15 15 17 19 17 19 16 15 18 19 12 15 19 19 21 23 25 24 28 33 23 28 34 31 29 30 39
31 32 32 33 33 34 35 35 35 34 32 29 24 20 13 16 21 26 25 16 15 17 23 20 21 23 18 19 19 21 17 17 24 30 29 32 30 30 27 33 36 28 30 35 38 36 40
32 32 33 34 35 36 37 37 36 34 31 26 20 15 14 20 24 24 20 15 17 20 20 21 23 21 17 22 21 22 17 22 26 28 31 33 39 25 25 23 26 26 26 30 37 39 45
32 33 34 35 37 38 38 38 35 33 30 22 17 15 19 24 25 20 17 18 19 22 25 25 23 21 22 23 23 22 21 26 27 32 31 35 34 31 36 30 23 29 30 27 36 36 42
32 34 35 36 37 38 38 37 35 32 28 20 13 15 21 28 23 19 16 16 17 24 23 20 21 24 25 28 27 27 26 28 30 32 30 32 44 34 34 31 30 29 31 38 33 42 49
33 34 35 37 37 38 38 37 35 32 26 17 15 16 27 26 19 19 17 17 19 26 21 22 22 23 22 27 26 26 27 27 33 35 29 35 33 41 39 30 35 34 33 32 35 38 48
33 35 36 37 37 37 37 37 35 32 25 17 16 17 29 22 18 18 19 19 19 27 23 22 22 24 26 30 28 25 27 28 32 35 35 34 36 46 44 48 39 33 31 28 36 40 38
33 34 35 36 36 37 37 37 36 32 25 16 16 20 28 18 17 16 18 19 20 25 26 23 26 27 28 29 30 27 31 29 36 39 38 36 34 51 52 35 30 32 34 34 37 34 42
32 33 34 35 35 36 37 38 37 33 24 16 16 19 24 25 18 15 18 25 20 25 28 24 27 24 28 29 31 31 39 34 42 41 36 34 36 40 52 49 46 50 47 41 38 41 45
32 33 34 33 35 36 38 37 38 33 24 17 18 19 20 22 23 21 20 23 25 25 24 29 29 28 31 34 36 36 38 44 37 34 35 35 44 45 47 48 50 56 58 51 46 44 47
31 32 32 33 35 36 36 36 37 34 27 21 16 16 20 21 22 24 23 25 27 25 27 28 31 30 30 33 35 42 43 40 40 36 39 33 42 46 56 52 50 53 51 51 51 50 48
30 30 32 33 33 34 34 35 35 37 29 24 21 19 18 25 24 23 26 26 28 28 26 29 33 32 33 34 35 35 34 36 38 37 34 32 40 46 58 46 46 56 41 44 47 40 41
28 30 32 32 32 33 34 35 34 35 33 25 22 21 22 24 24 25 25 25 29 30 29 32 32 33 29 31 31 28 29 31 25 25 21 31 40 35 44 38 50 40 36 40 43 40 35
28 31 32 32 33 33 34 35 34 33 33 31 26 22 21 22 23 25 28 28 28 30 30 29 32 25 29 27 29 31 32 30 27 20 20 27 33 33 33 36 38 34 29 34 37 46 41
29 31 32 32 33 34 34 35 35 34 33 29 31 23 20 20 25 23 26 28 29 32 31 25 30 24 26 25 27 30 31 30 26 25 22 30 29 26 28 28 29 25 33 35 35 45 32
29 31 32 32 34 34 34 35 35 35 33 30 29 26 20 21 21 24 27 27 25 28 27 23 23 24 27 25 27 27 25 24 25 23 24 29 28 26 27 25 22 25 32 31 26 30 36
29 31 32 33 34 35 35 35 34 34 32 27 27 26 20 20 21 23 24 26 25 26 27 21 20 24 21 22 21 21 18 19 18 4 17 25 24 24 22 25 26 16 24 29 11 11 34
30 31 32 33 34 34 34 33 32 32 30 27 27 25 21 21 21 21 22 21 26 26 26 24 21 18 19 20 19 16 16 13 10 13 14 20 17 17 12 4 11 17 20 19 17 19 26
Wind_Direction
338 335 333 330 328 326 321 318 317 314 311 306 300 293 286 281 276 276 281 284 290 295 297 299 300 298 302 291 269 292 313 18 39 17 342 308 293 286 272 271 261 261 257 265 278 283 309
336 334 332 329 328 326 323 319 317 314 312 309 304 298 291 285 279 278 279 285 294 302 304 307 310 310 303 280 296 298 335 10 337 342 315 299 293 289 279 279 276 267 271 258 277 270 297
334 334 332 328 327 327 324 321 317 314 313 311 306 302 298 293 291 291 295 302 305 314 317 321 318 306 298 241 308 312 331 323 318 351 314 300 310 290 295 271 276 282 271 266 274 286 312
334 332 331 328 326 326 325 321 316 313 312 311 308 304 300 297 297 305 316 324 321 325 339 338 326 307 289 287 289 287 303 305 304 309 301 301 299 288 289 283 280 278 281 268 273 290 296
334 331 330 328 325 323 323 320 315 313 312 311 309 305 302 299 299 318 346 340 334 340 338 349 316 307 283 291 291 280 296 301 309 303 291 292 304 297 293 286 281 283 276 272 268 282 285
333 332 330 328 325 323 322 318 314 312 312 311 309 305 304 302 303 350 0 355 5 359 337 318 305 301 286 307 309 298 294 293 299 306 298 302 303 295 295 289 279 277 276 276 276 281 289
334 333 331 328 326 324 322 317 314 312 311 311 307 303 303 305 327 24 23 2 338 326 331 332 318 300 272 291 307 307 304 291 289 302 289 297 289 283 284 286 288 283 276 275 267 283 292
334 331 330 328 325 323 321 318 315 312 312 311 308 302 299 308 339 31 4 338 318 328 293 208 202 215 259 300 295 293 310 298 288 286 294 289 282 283 286 287 287 283 275 268 273 281 296
333 331 329 327 325 322 320 318 315 313 312 310 306 302 298 308 344 1 352 302 328 288 317 296 336 327 297 328 312 287 304 290 298 291 292 286 290 303 291 285 283 282 279 272 275 277 294
332 330 328 327 325 324 321 320 316 314 311 309 302 298 300 321 356 346 331 305 298 -0 327 326 333 336 354 346 319 325 320 309 299 293 290 290 289 286 286 283 286 281 281 277 275 282 283
333 331 329 328 327 326 323 321 319 317 313 310 307 303 310 17 348 348 322 299 326 340 323 326 351 358 10 1 334 330 312 298 298 298 301 295 296 300 292 286 291 284 286 288 285 284 287
335 331 330 329 328 327 325 323 321 319 315 312 310 312 339 358 343 334 303 305 347 331 323 330 348 337 342 326 320 325 322 302 304 294 289 289 290 293 289 279 290 289 282 288 290 287 278
335 333 331 330 329 328 327 326 323 321 316 311 308 318 13 356 323 304 308 340 337 328 324 327 325 321 332 327 331 333 321 322 306 296 291 288 286 286 289 287 282 287 284 282 280 278 279
335 333 332 333 332 331 330 328 326 322 316 309 307 356 25 349 305 318 343 341 330 327 328 329 327 328 330 326 320 324 326 313 322 312 298 293 285 291 292 285 284 285 280 276 280 280 281
337 335 335 335 335 334 332 330 326 322 316 302 318 10 357 316 309 351 345 333 329 326 322 319 323 322 315 317 319 317 321 316 319 319 303 296 289 290 287 291 293 289 282 288 282 286 283
338 338 338 338 338 336 334 331 327 322 317 298 1 354 341 310 323 353 349 345 344 335 332 335 324 322 314 314 313 313 313 320 313 319 317 303 289 292 292 291 286 284 289 280 281 279 277
341 340 341 341 339 337 335 333 330 325 316 318 350 348 316 307 357 351 343 345 343 334 342 335 327 323 326 321 319 316 314 314 321 316 320 309 296 288 291 290 289 288 286 284 281 276 277
344 343 343 342 341 340 337 335 333 328 317 342 350 346 317 333 345 350 343 340 345 335 340 339 335 330 322 320 316 315 313 316 325 323 310 311 298 290 286 282 289 291 291 291 280 277 280
345 345 344 344 343 342 340 338 335 331 325 360 357 350 336 359 345 354 357 350 355 344 339 333 330 331 324 320 313 316 315 316 322 318 311 309 299 292 289 293 292 283 287 294 289 282 278
346 346 345 345 344 344 343 342 339 333 326 6 359 345 352 6 9 5 348 343 337 345 344 342 334 333 329 321 322 312 313 315 317 314 311 307 295 290 285 287 289 284 283 287 286 278 279
348 347 347 346 346 347 347 346 344 340 328 8 356 358 1 353 357 11 4 348 342 336 347 344 336 337 330 320 319 314 316 313 315 315 313 307 293 291 287 287 286 284 280 281 278 277 277
349 348 346 348 349 349 349 349 350 348 349 16 10 16 17 10 5 1 353 350 345 341 341 338 336 332 333 326 322 316 316 316 312 312 309 306 296 296 288 288 285 282 283 279 275 276 276
348 345 348 349 349 349 349 350 353 357 5 19 10 17 12 1 359 355 351 351 346 344 346 345 336 334 331 329 327 323 320 316 311 310 310 308 306 300 290 293 288 282 285 284 279 272 274
345 348 350 349 349 350 351 352 354 359 9 17 14 13 11 4 8 3 358 357 352 349 344 345 345 337 340 339 338 339 338 332 329 326 325 319 318 305 297 294 285 290 295 290 282 276 279
347 350 352 350 349 351 352 353 353 356 4 19 16 20 16 12 12 7 3 359 356 356 351 349 353 356 349 354 347 344 344 346 338 340 332 337 331 317 308 302 299 302 304 298 288 277 279
351 353 351 350 349 350 353 354 356 357 2 24 15 26 26 13 4 12 6 6 1 357 357 3 353 10 14 10 357 347 345 348 342 334 337 329 338 334 329 318 311 324 319 313 305 278 289
354 353 351 350 352 354 354 356 1 5 10 25 22 25 30 29 25 21 13 11 18 12 10 16 19 21 17 25 17 7 3 10 353 343 335 327 346 343 338 343 341 340 312 300 306 301 298
355 352 351 352 355 357 360 5 9 12 15 26 25 26 35 34 32 30 30 28 27 25 21 32 31 23 37 40 40 41 44 38 38 46 295 340 325 331 312 348 340 298 299 341 324 294 297
356 352 352 355 358 4 7 10 13 17 17 29 25 30 47 39 42 60 50 82 49 48 37 40 53 67 59 52 53 66 64 85 88 65 261 308 277 269 242 244 273 291 281 270 270 260 253